Temperature
18 18 18 18 17 17 17 17 17 16 16 16 16 16 15 15 15 15 15 14 14 14 14 14 14 14 14 14 14 13 13 14 14 14 14 14 13 13 14 14 14 14 14
17 17 17 17 17 17 17 17 16 16 16 16 16 15 15 15 15 14 14 14 14 14 14 14 14 14 13 13 13 13 13 13 13 13 13 13 13 13 13 13 13 13 13
17 17 17 17 17 17 17 17 16 16 16 16 15 15 15 15 14 14 14 14 14 14 14 13 13 13 13 13 13 13 13 13 13 13 13 12 12 12 13 13 13 13 13
17 17 17 17 17 17 17 16 16 16 16 16 15 15 15 15 14 14 14 14 13 13 13 13 13 13 13 13 13 12 12 12 12 12 12 12 12 12 12 12 12 12 13
17 17 17 17 17 17 16 16 16 16 16 15 15 15 15 14 14 14 14 14 13 13 13 13 13 13 13 13 12 12 12 12 12 12 12 12 12 12 12 11 12 12 12
17 17 17 17 17 17 16 16 16 16 15 15 15 15 14 14 14 14 13 13 13 13 13 13 13 13 12 12 12 12 12 12 12 12 12 12 12 12 12 12 11 12 12
17 17 17 17 16 16 16 16 16 16 15 15 15 14 14 14 14 14 13 13 13 13 13 13 13 12 12 12 12 12 12 12 12 12 12 12 12 12 12 12 12 11 11
17 17 17 17 16 16 16 16 16 15 15 15 15 14 14 14 13 13 13 13 13 13 12 12 12 12 12 12 12 12 12 12 12 12 12 12 12 12 12 12 12 11 11
17 17 17 17 16 16 16 16 15 15 15 14 14 14 14 14 13 13 13 13 13 12 12 12 12 12 12 12 12 12 12 12 12 12 12 12 12 12 12 12 12 12 11
17 17 17 17 16 16 16 15 15 15 15 14 14 14 13 13 13 13 13 12 12 12 12 12 12 12 12 12 12 12 12 12 12 12 12 12 12 12 12 12 12 11 11
17 17 17 16 16 16 15 15 15 14 14 14 14 13 13 13 13 13 12 12 12 12 12 12 12 12 12 12 11 12 11 11 11 11 12 12 12 11 11 11 11 11 11
17 17 16 16 16 15 15 15 15 14 14 14 13 13 13 13 13 12 12 12 12 12 12 12 12 12 12 11 11 11 11 11 11 11 11 11 11 11 11 11 11 11 11
17 16 16 16 16 15 15 15 14 14 14 13 13 13 13 13 12 12 12 12 12 12 12 11 11 11 11 11 11 11 11 11 11 11 11 11 11 11 11 11 11 11 11
16 16 16 15 15 15 15 15 14 14 14 13 13 13 13 12 12 12 12 12 12 11 11 11 11 11 11 11 11 11 11 11 11 11 11 11 11 11 11 11 11 11 11
15 15 15 15 15 15 14 14 14 14 13 13 13 13 12 12 12 12 12 12 11 11 11 11 11 11 11 11 11 11 11 11 11 11 10 11 11 10 11 11 11 11 10
15 15 15 15 15 14 14 14 14 13 13 13 13 12 12 12 12 12 11 11 11 11 11 11 11 11 11 11 10 10 10 10 10 10 10 10 10 10 10 10 10 10 10
15 15 15 15 14 14 14 14 14 13 13 13 12 12 12 12 11 11 11 11 11 11 10 10 10 10 10 10 10 10 10 10 10 10 10 10 10 10 10 10 10 10 10
15 15 15 15 14 14 14 14 13 13 13 12 12 12 12 11 11 11 11 11 10 10 10 10 10 10 10 10 10 10 10 10 10 9 9 9 9 9 10 10 10 10 10
15 14 14 14 14 14 13 13 13 13 12 12 12 11 11 11 11 11 10 10 10 10 10 9 9 9 9 9 10 10 9 9 9 9 9 9 9 9 9 9 9 9 9
14 14 14 14 13 13 13 13 12 12 12 12 11 11 11 11 11 10 10 10 10 9 9 9 9 9 9 9 9 9 9 9 9 9 9 8 8 9 9 9 9 9 9
14 14 13 13 13 13 12 12 12 11 11 11 11 11 10 10 10 10 9 9 9 9 9 9 9 8 9 8 8 8 8 8 8 8 8 8 8 8 8 8 8 8 8
13 13 13 12 12 12 12 12 11 11 11 10 10 10 10 10 9 9 9 9 8 8 8 8 8 8 8 8 8 8 8 8 8 8 8 8 8 7 8 7 7 7 7
12 12 12 12 12 11 11 11 11 10 10 10 10 10 9 9 9 8 8 8 8 8 8 8 8 8 8 8 8 8 8 7 7 7 7 7 7 7 7 7 7 7 7
11 11 11 11 11 11 11 10 10 10 10 10 9 9 9 9 8 8 8 8 8 8 7 7 7 7 7 7 7 7 7 7 7 7 7 7 6 6 6 6 6 6 6
11 11 11 10 10 10 10 10 10 9 9 9 9 9 8 8 8 7 7 7 7 7 7 7 7 7 7 7 7 7 7 7 6 6 6 6 6 6 6 6 6 6 6
10 10 10 10 10 10 9 9 9 9 9 9 8 8 8 8 7 7 7 7 7 7 6 6 6 6 6 6 6 6 6 6 6 6 6 5 5 5 5 5 5 5 5
Wind_Speed
6 5 6 6 6 5 6 5 6 4 4 3 3 3 2 1 1 2 4 4 5 6 6 3 3 3 3 3 3 2 3 2 2 3 3 4 3 4 3 2 3 3 3
4 5 5 6 6 6 6 6 6 5 5 4 3 2 3 2 1 1 3 4 5 5 5 4 3 3 3 3 3 3 2 1 2 2 2 3 4 4 4 3 2 3 3
9 7 6 6 6 6 6 6 6 6 5 5 4 3 3 2 2 1 1 1 3 4 5 4 3 2 2 2 1 2 2 1 1 1 3 2 1 2 3 4 3 3 2
8 8 7 7 7 7 6 6 6 6 6 6 6 5 3 2 2 2 2 1 2 4 4 4 3 2 2 2 1 1 1 2 1 1 1 1 3 2 1 3 3 3 2
9 9 10 10 8 7 6 6 6 6 5 6 6 6 4 2 1 1 2 1 1 2 3 3 2 2 2 2 1 2 1 1 1 1 0 1 1 1 2 1 3 3 3
8 7 8 7 6 5 5 5 6 5 5 6 6 6 6 4 3 2 2 2 1 1 1 3 2 2 2 2 2 2 2 1 1 1 1 1 1 1 2 1 1 2 3
8 7 7 7 7 7 6 6 7 5 5 6 5 6 6 6 6 4 3 2 1 1 2 2 2 2 2 2 2 2 1 1 1 1 1 1 2 2 2 2 1 1 2
8 8 9 8 8 8 8 7 7 5 5 5 5 5 5 4 4 4 3 3 3 3 3 2 2 2 2 2 2 1 1 1 1 1 1 1 1 1 2 3 2 0 2
8 8 8 8 8 9 8 8 8 6 6 5 5 4 4 4 4 3 3 3 3 3 3 2 2 2 2 2 2 1 1 1 1 1 1 1 1 1 1 2 3 3 1
7 7 7 7 7 8 7 7 7 8 6 6 5 5 4 4 4 3 3 3 3 3 3 3 2 2 2 2 2 1 1 1 1 1 1 1 2 1 1 2 2 2 3
7 7 7 7 7 6 7 6 6 6 5 6 5 4 4 4 4 4 4 4 3 3 3 3 3 3 3 3 2 2 2 2 2 1 1 2 2 1 1 1 1 1 2
6 6 6 6 5 6 6 6 6 6 7 6 6 5 4 4 4 4 4 4 4 4 3 3 3 3 2 3 3 4 3 3 3 3 2 2 1 1 1 1 1 2 2
4 4 4 5 6 6 6 6 6 6 6 6 5 5 4 5 5 5 5 4 4 4 3 3 3 3 3 3 4 4 4 4 4 3 3 3 2 2 1 1 2 1 1
4 4 3 3 4 5 5 6 5 5 5 5 6 5 5 6 5 4 4 4 4 4 3 4 4 4 4 4 4 3 3 3 3 2 3 3 3 3 3 2 2 2 1
3 4 4 3 3 3 3 4 4 4 5 5 5 6 5 5 4 4 4 3 3 4 4 4 3 3 3 3 3 3 3 3 2 2 3 3 3 4 3 2 2 2 2
4 4 4 4 4 4 4 3 4 4 5 5 6 5 5 4 4 4 4 3 3 3 3 3 3 3 3 4 4 3 3 3 3 3 3 3 3 4 4 4 3 3 3
4 4 4 4 4 4 4 4 5 4 4 5 5 5 5 5 4 4 3 3 3 2 3 3 3 3 4 3 4 4 3 3 3 4 3 3 3 3 3 4 5 4 4
3 3 3 3 3 3 3 3 3 3 3 3 4 4 4 4 4 3 3 3 2 2 3 3 3 3 3 3 3 4 3 3 3 4 4 3 4 3 2 2 2 3 4
4 3 3 2 2 2 3 3 2 2 2 3 3 4 4 4 3 4 4 3 3 3 3 2 2 3 3 3 2 2 2 2 3 3 3 3 4 4 2 2 2 3 4
2 3 2 2 2 2 3 4 2 2 3 4 4 4 4 4 4 4 4 3 3 3 2 2 2 2 3 3 2 2 2 2 2 2 3 4 3 3 1 2 2 4 4
2 3 3 3 2 2 4 4 2 3 3 3 3 3 3 4 4 3 3 2 2 2 2 1 1 1 2 2 2 1 2 2 2 2 2 3 4 3 3 2 3 5 3
2 3 3 2 1 2 4 3 2 3 2 1 2 2 2 2 2 3 2 2 3 2 2 1 1 1 1 2 2 1 1 1 2 2 2 2 3 2 2 2 2 3 2
2 2 3 2 1 1 3 3 2 2 2 2 2 2 1 1 2 3 2 2 2 2 2 1 1 1 1 2 3 2 2 1 1 1 2 2 2 2 1 2 2 2 1
1 1 3 2 1 1 1 1 1 2 3 3 2 2 2 1 1 2 2 2 2 2 2 1 1 1 1 2 2 2 2 2 1 1 2 3 3 2 2 3 2 2 0
0 1 3 2 0 0 1 0 1 2 3 2 2 2 2 2 2 1 1 2 2 2 2 2 2 1 1 2 1 1 0 0 0 1 2 2 2 2 2 2 2 2 2
1 2 2 2 1 1 1 1 1 2 3 2 2 2 2 2 3 2 1 2 2 2 2 2 2 0 1 2 2 2 2 3 4 4 2 2 2 1 1 2 2 2 2
Wind_Direction
191 175 164 158 148 139 138 133 124 125 124 116 120 116 125 121 84 74 86 100 108 111 106 97 86 85 89 85 79 80 61 35 33 54 22 3 11 29 28 29 34 36 47
171 173 163 150 152 157 155 146 143 144 143 138 141 145 147 148 140 77 81 105 113 113 114 112 118 106 97 79 68 79 71 30 45 87 74 15 355 356 3 7 25 23 41
180 181 168 162 159 162 165 162 157 150 145 130 114 99 80 72 67 75 70 79 119 112 109 114 117 115 114 116 105 102 101 75 12 71 121 120 230 319 341 353 6 8 28
180 178 174 173 175 178 174 160 159 152 146 139 134 135 134 145 194 174 158 127 116 115 117 122 125 128 130 136 144 109 116 115 57 356 43 144 162 146 334 335 343 352 4
180 178 182 183 180 172 168 164 160 152 149 150 150 145 133 148 139 131 143 145 154 132 135 137 141 149 148 153 135 108 115 130 141 154 90 60 60 118 147 287 321 343 331
180 180 181 173 168 158 155 154 157 156 153 151 152 151 150 148 137 145 163 178 205 212 171 159 165 171 170 176 178 163 143 138 130 144 148 149 149 176 152 200 284 315 314
171 174 171 169 166 161 160 158 156 158 160 158 161 162 162 164 169 172 179 175 184 217 223 188 181 180 188 186 173 164 173 173 164 181 188 178 187 177 159 157 207 296 306
169 175 179 177 172 170 167 164 162 160 164 168 175 171 165 168 180 185 186 188 199 214 210 197 200 203 193 183 167 165 199 183 200 220 204 185 215 167 165 165 160 5 323
174 177 178 176 173 172 174 173 170 167 174 174 170 172 173 169 180 196 197 197 205 213 197 192 194 206 192 182 169 180 200 187 219 233 232 225 235 207 178 165 170 166 216
175 176 178 179 177 178 177 174 174 179 181 175 175 178 185 180 183 183 197 206 207 204 187 192 197 197 190 181 175 182 201 178 245 237 236 260 244 229 203 182 176 175 181
179 180 183 183 177 174 173 176 179 177 177 180 183 181 190 189 186 189 202 207 199 191 194 204 203 199 198 193 189 206 200 200 238 249 232 259 260 241 230 183 161 176 168
177 176 174 171 171 175 179 182 186 186 187 187 185 189 192 191 191 205 214 207 199 204 203 202 202 208 209 206 200 213 214 214 228 242 240 259 255 260 242 202 205 207 198
158 155 160 172 180 184 188 193 196 198 195 184 183 192 197 196 202 212 215 209 200 203 199 187 202 218 218 217 217 208 215 219 224 226 224 239 213 241 243 228 223 226 223
157 157 169 186 188 190 191 192 200 197 192 186 189 197 206 207 206 204 199 203 197 195 198 205 212 217 218 221 225 209 209 220 230 229 227 228 211 223 226 231 235 221 214
155 171 181 194 193 186 193 196 199 195 186 183 193 203 203 201 195 195 197 202 200 209 208 207 217 221 219 225 211 194 207 214 227 241 238 235 228 233 231 237 219 199 196
186 189 185 186 195 195 193 192 193 194 183 186 202 202 192 189 192 196 193 194 203 211 206 206 210 216 234 242 209 188 204 214 224 240 248 246 240 255 253 249 220 188 188
190 196 198 200 206 205 194 197 203 195 183 194 201 196 191 195 202 198 187 199 211 201 204 211 209 225 248 240 207 194 193 216 232 236 246 259 269 264 253 261 257 244 238
181 201 205 204 204 197 187 188 179 173 182 194 203 195 189 195 192 179 188 209 210 205 211 218 219 226 253 237 210 201 205 218 232 235 233 240 258 265 245 247 266 269 267
190 195 193 184 174 179 173 148 141 150 168 194 199 195 185 185 181 185 200 206 197 206 213 206 214 226 260 259 228 198 208 232 245 248 245 240 243 272 268 225 253 279 286
163 167 160 134 128 172 148 139 155 162 202 213 207 198 185 181 191 202 205 202 191 200 203 209 223 224 252 273 255 202 199 223 252 266 266 261 260 263 254 208 224 259 271
116 128 126 129 157 155 134 140 157 199 227 220 201 193 189 184 188 190 181 170 175 173 179 193 235 240 277 303 300 262 205 209 231 254 270 275 275 268 265 242 232 256 265
93 112 122 123 126 132 134 148 198 224 205 151 151 171 179 179 166 161 166 164 164 165 180 197 258 302 304 336 333 334 285 223 209 249 268 275 284 279 295 280 277 293 313
102 98 124 108 60 94 131 159 218 192 142 126 140 155 144 146 145 149 154 145 147 160 179 177 217 288 317 331 338 331 324 314 250 269 310 327 334 330 329 329 338 345 9
110 115 116 103 54 29 118 175 196 166 143 149 164 162 152 137 119 128 140 140 149 156 165 177 220 280 324 329 328 317 307 309 316 331 360 16 17 18 13 10 355 341 314
212 136 135 137 165 29 45 38 105 119 133 144 153 159 160 150 134 122 133 148 167 165 168 188 194 205 257 296 336 34 350 273 111 78 49 37 23 14 13 6 353 350 357
178 142 136 132 121 100 67 11 82 112 124 144 158 173 171 162 151 141 94 44 70 90 113 110 116 209 343 349 3 13 30 66 89 90 69 48 31 13 4 357 354 355 343
Height
1515 1517 1518 1519 1520 1522 1523 1524 1524 1526 1526 1527 1527 1527 1527 1528 1528 1528 1528 1528 1528 1528 1528 1528 1527 1527 1527 1526 1526 1525 1525 1525 1524 1524 1523 1524 1524 1524 1523 1522 1521 1521 1521
1513 1514 1516 1517 1519 1520 1521 1522 1523 1524 1525 1525 1526 1527 1527 1527 1527 1528 1528 1528 1528 1528 1527 1527 1527 1527 1526 1526 1526 1525 1525 1524 1524 1524 1523 1523 1525 1523 1523 1523 1522 1521 1521
1510 1512 1514 1515 1517 1518 1519 1521 1522 1523 1524 1524 1525 1526 1526 1526 1526 1526 1527 1527 1527 1527 1527 1527 1527 1527 1526 1526 1525 1525 1525 1524 1524 1524 1524 1524 1523 1523 1523 1522 1522 1522 1521
1507 1509 1511 1513 1515 1516 1518 1519 1520 1521 1522 1523 1523 1524 1524 1524 1524 1525 1526 1526 1527 1527 1527 1526 1526 1526 1526 1525 1525 1525 1524 1524 1524 1524 1524 1524 1524 1523 1522 1522 1521 1521 1520
1505 1506 1508 1510 1512 1514 1516 1517 1519 1520 1521 1521 1522 1523 1523 1523 1524 1524 1525 1525 1525 1525 1526 1526 1526 1525 1525 1525 1524 1524 1524 1524 1523 1523 1523 1523 1523 1523 1522 1521 1521 1520 1520
1502 1504 1506 1508 1510 1512 1514 1515 1516 1518 1519 1520 1521 1521 1522 1522 1523 1523 1523 1524 1524 1524 1524 1525 1525 1524 1524 1524 1524 1523 1523 1523 1523 1523 1522 1522 1522 1522 1521 1521 1520 1519 1519
1500 1502 1504 1506 1508 1510 1512 1513 1514 1515 1517 1518 1519 1519 1520 1521 1521 1521 1522 1522 1522 1523 1523 1523 1523 1523 1523 1523 1523 1522 1522 1522 1522 1522 1521 1521 1521 1521 1521 1520 1519 1519 1519
1498 1499 1501 1503 1505 1507 1509 1511 1512 1513 1514 1516 1517 1518 1518 1519 1520 1520 1520 1520 1521 1521 1522 1522 1522 1522 1522 1522 1521 1521 1521 1521 1520 1520 1520 1520 1520 1520 1520 1519 1519 1518 1517
1496 1498 1500 1502 1503 1505 1507 1508 1510 1511 1512 1513 1514 1515 1516 1517 1518 1518 1518 1518 1519 1520 1520 1520 1520 1520 1520 1520 1520 1519 1519 1519 1519 1519 1518 1518 1518 1518 1518 1518 1518 1518 1516
1495 1496 1498 1500 1502 1503 1505 1507 1508 1509 1510 1511 1512 1513 1514 1514 1515 1516 1516 1517 1517 1517 1518 1518 1518 1518 1518 1518 1518 1518 1518 1518 1517 1517 1517 1516 1516 1516 1516 1516 1516 1516 1516
1493 1495 1496 1498 1500 1501 1503 1505 1506 1507 1508 1509 1510 1511 1511 1512 1513 1513 1514 1514 1514 1515 1515 1516 1516 1516 1516 1516 1516 1516 1516 1515 1515 1515 1515 1515 1514 1514 1514 1514 1514 1514 1513
1492 1493 1495 1496 1498 1499 1501 1502 1503 1505 1506 1507 1508 1508 1509 1510 1510 1510 1511 1511 1512 1512 1513 1513 1513 1514 1514 1514 1514 1514 1514 1513 1513 1513 1513 1512 1512 1512 1512 1512 1511 1511 1511
1491 1492 1493 1495 1496 1497 1498 1500 1501 1502 1503 1504 1505 1505 1506 1507 1507 1507 1508 1508 1509 1509 1510 1510 1510 1511 1511 1511 1511 1511 1511 1511 1511 1511 1510 1510 1510 1509 1509 1509 1509 1509 1508
1489 1490 1491 1493 1494 1495 1496 1497 1498 1499 1500 1501 1502 1502 1503 1503 1504 1504 1505 1505 1506 1506 1507 1507 1507 1508 1508 1508 1509 1508 1508 1508 1508 1508 1508 1507 1507 1506 1507 1506 1506 1506 1505
1488 1489 1490 1491 1492 1493 1493 1494 1495 1496 1497 1498 1498 1499 1500 1500 1501 1501 1502 1502 1503 1503 1504 1504 1504 1505 1505 1505 1505 1505 1505 1505 1505 1505 1505 1504 1504 1504 1504 1503 1503 1503 1502
1487 1488 1488 1489 1490 1490 1491 1491 1492 1493 1494 1494 1495 1495 1496 1496 1497 1498 1498 1499 1499 1500 1500 1500 1501 1501 1501 1502 1502 1502 1502 1502 1502 1501 1501 1501 1501 1501 1501 1500 1500 1500 1499
1485 1486 1486 1487 1487 1488 1488 1489 1489 1490 1490 1491 1491 1492 1492 1492 1493 1494 1495 1495 1495 1496 1496 1497 1497 1497 1498 1498 1498 1499 1498 1498 1498 1497 1497 1497 1497 1497 1497 1497 1497 1496 1496
1483 1484 1484 1484 1485 1486 1486 1486 1487 1487 1487 1487 1488 1488 1489 1489 1489 1490 1491 1491 1492 1492 1492 1493 1493 1493 1494 1494 1495 1495 1495 1494 1494 1494 1493 1493 1493 1493 1493 1493 1492 1492 1492
1481 1482 1482 1483 1483 1483 1483 1483 1483 1484 1484 1484 1484 1484 1485 1485 1486 1486 1487 1487 1488 1488 1489 1489 1490 1490 1490 1490 1491 1491 1491 1490 1490 1490 1490 1490 1489 1489 1489 1489 1488 1488 1488
1479 1480 1480 1481 1481 1481 1481 1481 1480 1480 1480 1480 1481 1481 1482 1482 1482 1482 1483 1484 1484 1485 1486 1486 1486 1486 1486 1487 1487 1487 1487 1486 1486 1486 1486 1486 1486 1485 1485 1484 1484 1484 1483
1478 1478 1478 1478 1479 1479 1479 1478 1478 1477 1477 1477 1478 1478 1478 1478 1478 1479 1480 1480 1481 1482 1482 1482 1482 1482 1483 1483 1483 1483 1483 1482 1482 1482 1482 1482 1482 1481 1481 1481 1480 1480 1480
1476 1476 1476 1476 1477 1476 1476 1475 1475 1475 1475 1475 1475 1475 1475 1475 1475 1476 1476 1477 1478 1478 1479 1479 1479 1479 1479 1479 1479 1479 1479 1479 1478 1478 1478 1478 1478 1477 1477 1476 1476 1476 1475
1474 1475 1475 1474 1474 1474 1474 1473 1472 1473 1472 1472 1472 1472 1472 1472 1472 1473 1473 1474 1474 1475 1475 1475 1475 1475 1475 1476 1476 1475 1475 1475 1474 1474 1474 1474 1474 1473 1472 1472 1472 1471 1471
1473 1473 1472 1472 1472 1472 1471 1471 1470 1470 1470 1470 1470 1470 1470 1470 1470 1470 1471 1471 1471 1471 1472 1472 1472 1472 1472 1472 1472 1472 1472 1472 1471 1471 1471 1470 1470 1469 1469 1468 1468 1468 1467
1471 1471 1470 1470 1470 1469 1469 1469 1468 1468 1467 1467 1467 1467 1467 1467 1467 1468 1468 1468 1469 1469 1469 1470 1470 1470 1469 1469 1470 1469 1469 1469 1469 1468 1467 1467 1466 1466 1465 1465 1465 1464 1464
1469 1468 1468 1468 1467 1467 1467 1466 1466 1466 1465 1465 1464 1464 1465 1465 1465 1465 1466 1466 1467 1467 1467 1468 1468 1468 1468 1467 1467 1467 1467 1466 1466 1466 1465 1464 1464 1463 1463 1462 1462 1462 1461